EW6851 Weather Reports


time (UTC)temp
C
wind
direction
speed
KPH
gust
KPH
rain 1hr
cm
rain 24hr
cm
rain mn
cm
humidity
%
barometer
mb
20260508004658 21 36 3.2 4.8 0.00 0.00 0.00 62 1008.3
20260508004157 21 193 0.0 9.7 0.00 0.00 0.00 61 1008.4
20260508003657 20 193 9.7 12.9 0.00 0.00 0.00 62 1008.6
20260508003203 20 196 9.7 14.5 0.00 0.00 0.00 63 1008.6
20260508002706 20 173 6.4 19.3 0.00 0.00 0.00 64 1008.7
20260508002203 20 204 9.7 17.7 0.00 0.00 0.00 64 1009.0
20260508001657 20 208 12.9 16.1 0.00 0.00 0.00 64 1009.2
20260508001200 20 190 8.0 12.9 0.00 0.00 0.00 64 1009.1
20260508000657 20 209 11.3 17.7 0.00 0.00 0.00 65 1008.9
20260508000157 20 180 11.3 11.3 0.00 0.00 0.00 65 1008.8
20260507235657 20 185 4.8 8.0 0.00 0.00 0.00 64 1009.0
20260507235203 20 136 3.2 11.3 0.00 0.00 0.00 64 1009.0
20260507234701 20 103 3.2 11.3 0.00 0.00 0.00 64 1009.1
20260507234157 20 113 8.0 12.9 0.00 0.00 0.00 64 1009.2
20260507233700 20 100 4.8 11.3 0.00 0.00 0.00 64 1009.3
20260507233200 20 148 0.0 9.7 0.00 0.00 0.00 65 1009.4
20260507232657 20 102 0.0 12.9 0.00 0.00 0.00 65 1009.5
20260507232203 20 88 3.2 12.9 0.00 0.00 0.00 66 1009.4
20260507231701 20 113 6.4 14.5 0.00 0.00 0.00 66 1009.8
20260507231157 20 144 1.6 16.1 0.00 0.00 0.00 66 1009.7
20260507230700 20 146 1.6 4.8 0.00 0.00 0.00 66 1009.6
20260507230157 20 143 3.2 3.2 0.00 0.00 0.00 66 1009.5
20260507225700 20 121 0.0 4.8 0.00 0.00 0.00 67 1009.2
20260507225157 20 144 3.2 9.7 0.00 0.00 0.00 67 1009.2
20260507224700 20 125 6.4 8.0 0.00 0.00 0.00 68 1009.3
20260507224200 20 168 4.8 9.7 0.00 0.00 0.00 68 1009.2
20260507223703 20 154 8.0 9.7 0.00 0.00 0.00 68 1009.3
20260507223157 20 143 4.8 11.3 0.00 0.00 0.00 68 1009.2
20260507222700 20 102 1.6 11.3 0.00 0.00 0.00 68 1009.2
20260507222203 20 135 3.2 11.3 0.00 0.00 0.00 67 1009.3
20260507221657 20 166 6.4 6.4 0.00 0.00 0.00 68 1009.2
20260507221200 20 139 4.8 11.3 0.00 0.00 0.00 68 1009.3
20260507220700 20 163 0.0 14.5 0.00 0.00 0.00 68 1009.3
20260507220158 20 169 3.2 17.7 0.00 0.00 0.00 68 1009.4
20260507215704 20 158 4.8 14.5 0.00 0.00 0.00 68 1009.5
20260507215157 20 202 3.2 14.5 0.00 0.00 0.00 68 1009.6
20260507214657 20 198 4.8 8.0 0.00 0.00 0.00 68 1009.7
20260507214158 20 92 0.0 1.6 0.00 0.00 0.00 68 1009.6
20260507213657 20 92 0.0 4.8 0.00 0.00 0.00 67 1009.5
20260507213200 20 92 0.0 4.8 0.00 0.00 0.00 67 1009.4
20260507212658 20 169 0.0 12.9 0.00 0.00 0.00 68 1009.3
20260507212157 20 76 4.8 14.5 0.00 0.00 0.00 68 1009.4
20260507211700 20 88 11.3 12.9 0.00 0.00 0.00 69 1009.6
20260507211201 20 169 3.2 14.5 0.00 0.00 0.00 69 1009.6
20260507210701 20 150 14.5 17.7 0.00 0.00 0.00 69 1009.9
20260507210157 20 161 4.8 17.7 0.00 0.00 0.00 69 1009.8
20260507205658 20 175 6.4 14.5 0.00 0.00 0.00 68 1009.8
20260507205158 20 178 4.8 12.9 0.00 0.00 0.00 68 1009.7
20260507204704 20 180 6.4 12.9 0.00 0.00 0.00 68 1009.4
20260507204158 20 163 1.6 12.9 0.00 0.00 0.00 68 1009.3
20260507203701 20 167 4.8 16.1 0.00 0.00 0.00 67 1009.3
20260507203158 20 128 1.6 4.8 0.00 0.00 0.00 67 1009.3
20260507202701 20 102 0.0 11.3 0.00 0.00 0.00 67 1009.3
20260507202204 20 153 0.0 14.5 0.00 0.00 0.00 67 1009.3
20260507201658 20 203 6.4 17.7 0.00 0.00 0.00 67 1009.5
20260507201201 20 174 0.0 11.3 0.00 0.00 0.00 67 1009.5
20260507200658 20 187 3.2 12.9 0.00 0.00 0.00 68 1009.5
20260507200158 20 174 4.8 17.7 0.00 0.00 0.00 68 1009.6
20260507195701 20 163 1.6 14.5 0.00 0.00 0.00 68 1009.7
20260507195201 20 170 1.6 16.1 0.00 0.00 0.00 68 1009.8
20260507194658 20 170 8.0 17.7 0.00 0.00 0.00 68 1009.8
20260507194158 20 201 9.7 11.3 0.00 0.00 0.00 67 1009.7
20260507193658 20 223 4.8 4.8 0.00 0.00 0.00 67 1009.4
20260507193158 20 220 3.2 6.4 0.00 0.00 0.00 67 1009.3
20260507192701 20 208 0.0 4.8 0.00 0.00 0.00 67 1009.3
20260507192158 20 95 0.0 1.6 0.00 0.00 0.00 67 1009.1
20260507191701 20 95 0.0 3.2 0.00 0.00 0.00 67 1009.1
20260507191158 20 95 1.6 3.2 0.00 0.00 0.00 68 1009.0
20260507190704 20 95 0.0 0.0 0.00 0.00 0.00 68 1009.0
20260507190201 20 73 0.0 3.2 0.00 0.00 0.00 68 1009.1
20260507185658 20 196 4.8 11.3 0.00 0.00 0.00 68 1009.1
20260507185158 20 182 4.8 12.9 0.00 0.00 0.00 68 1009.1
20260507184658 20 222 1.6 16.1 0.00 0.00 0.00 68 1009.1
20260507184158 20 222 8.0 14.5 0.00 0.00 0.00 67 1009.0
20260507183658 20 232 6.4 11.3 0.00 0.00 0.00 67 1008.9
20260507183201 20 246 3.2 8.0 0.00 0.00 0.00 67 1008.9
20260507182704 20 211 3.2 6.4 0.00 0.00 0.00 67 1008.6
20260507182204 20 244 3.2 6.4 0.00 0.00 0.00 67 1008.4
20260507181701 20 184 0.0 3.2 0.00 0.00 0.00 67 1008.4
20260507181201 20 269 0.0 6.4 0.00 0.00 0.00 67 1008.3
20260507180658 20 249 3.2 9.7 0.00 0.00 0.00 66 1008.4
20260507180204 20 253 3.2 8.0 0.00 0.00 0.00 66 1008.6
20260507175701 20 204 3.2 6.4 0.00 0.00 0.00 66 1008.6
20260507175158 20 247 3.2 4.8 0.00 0.00 0.00 66 1008.6
20260507174701 20 199 0.0 8.0 0.00 0.00 0.00 66 1008.6
20260507174158 20 236 3.2 8.0 0.00 0.00 0.00 66 1008.7
20260507173658 20 250 4.8 11.3 0.00 0.00 0.00 66 1008.8
20260507173158 21 204 8.0 11.3 0.00 0.00 0.00 66 1008.8
20260507172658 21 111 0.0 0.0 0.00 0.00 0.00 65 1008.8
20260507172201 21 134 0.0 6.4 0.00 0.00 0.00 65 1008.8
20260507171659 21 238 4.8 8.0 0.00 0.00 0.00 65 1009.0
20260507171158 21 218 8.0 14.5 0.00 0.00 0.00 64 1009.1
20260507170701 21 186 6.4 12.9 0.00 0.00 0.00 64 1009.0
20260507170158 21 203 8.0 11.3 0.00 0.00 0.00 65 1009.1
20260507165658 21 226 6.4 17.7 0.00 0.00 0.00 64 1009.1
20260507165158 21 248 8.0 16.1 0.00 0.00 0.00 64 1008.9
20260507164701 21 225 16.1 16.1 0.00 0.00 0.00 63 1008.8
20260507164158 21 222 9.7 17.7 0.00 0.00 0.00 62 1008.8
20260507163658 21 194 4.8 14.5 0.00 0.00 0.00 62 1008.8
20260507163158 21 209 4.8 12.9 0.00 0.00 0.00 61 1008.6
20260507162659 21 244 9.7 16.1 0.00 0.00 0.00 61 1008.6
20260507162158 22 261 8.0 14.5 0.00 0.00 0.00 59 1008.5
20260507161701 22 244 11.3 12.9 0.00 0.00 0.00 59 1008.6
20260507161207 22 236 1.6 12.9 0.00 0.00 0.00 58 1008.5
20260507160707 22 59 11.3 11.3 0.00 0.00 0.00 57 1008.4
20260507160201 22 19 1.6 11.3 0.00 0.00 0.00 56 1008.3
20260507155658 22 244 4.8 11.3 0.00 0.00 0.00 57 1008.1
20260507155158 22 188 1.6 12.9 0.00 0.00 0.00 57 1008.2
20260507154701 22 63 11.3 20.9 0.00 0.00 0.00 55 1008.3
20260507154201 22 172 11.3 16.1 0.00 0.00 0.00 56 1008.5
20260507153658 22 92 8.0 24.1 0.00 0.00 0.00 57 1008.3
20260507153201 22 87 22.5 27.4 0.00 0.00 0.00 57 1008.0
20260507152658 22 73 4.8 19.3 0.00 0.00 0.00 54 1008.3
20260507152158 23 274 8.0 11.3 0.00 0.00 0.00 53 1008.4
20260507151701 23 221 4.8 6.4 0.00 0.00 0.00 54 1008.3
20260507151158 23 261 3.2 9.7 0.00 0.00 0.00 54 1008.3
20260507150658 23 205 4.8 12.9 0.00 0.00 0.00 55 1008.3
20260507150158 23 215 8.0 9.7 0.00 0.00 0.00 55 1008.1
20260507145658 22 214 4.8 11.3 0.00 0.00 0.00 56 1008.1
20260507145201 22 192 3.2 14.5 0.00 0.00 0.00 56 1008.1
20260507144701 22 220 4.8 14.5 0.00 0.00 0.00 55 1008.1
20260507144204 22 238 8.0 11.3 0.00 0.00 0.00 55 1008.2
20260507143701 23 171 0.0 19.3 0.00 0.00 0.00 55 1008.1
20260507143201 23 240 11.3 12.9 0.00 0.00 0.00 54 1008.1
20260507142701 22 302 1.6 9.7 0.00 0.00 0.00 55 1008.1
20260507142201 22 264 3.2 16.1 0.00 0.00 0.00 56 1008.2
20260507141701 22 289 6.4 24.1 0.00 0.00 0.00 54 1008.4
20260507141201 22 25 8.0 16.1 0.00 0.00 0.00 54 1008.2
20260507140701 22 338 14.5 16.1 0.00 0.00 0.00 54 1008.4
20260507140201 22 10 6.4 30.6 0.00 0.00 0.00 54 1008.0
20260507135701 23 115 6.4 17.7 0.00 0.00 0.00 53 1008.4
20260507135158 23 39 9.7 20.9 0.00 0.00 0.00 52 1008.4
20260507134701 23 299 11.3 11.3 0.00 0.00 0.00 52 1008.4
20260507134158 23 138 0.0 9.7 0.00 0.00 0.00 52 1008.5
20260507133707 23 300 3.2 17.7 0.00 0.00 0.00 52 1008.5
20260507133201 23 271 11.3 27.4 0.00 0.00 0.00 52 1008.5
20260507132658 22 96 24.1 29.0 0.00 0.00 0.00 51 1008.6
20260507132158 23 73 1.6 16.1 0.00 0.00 0.00 50 1009.1
20260507131658 23 311 4.8 16.1 0.00 0.00 0.00 50 1008.9
20260507131158 23 282 6.4 29.0 0.00 0.00 0.00 48 1008.7
20260507130704 23 117 3.2 8.0 0.00 0.00 0.00 49 1009.0
20260507130207 23 185 1.6 27.4 0.00 0.00 0.00 49 1009.0
20260507125658 23 105 12.9 22.5 0.00 0.00 0.00 48 1008.8
20260507125158 23 123 20.9 25.7 0.00 0.00 0.00 48 1008.9
20260507124704 24 313 11.3 14.5 0.00 0.00 0.00 46 1009.0
20260507124158 23 129 8.0 12.9 0.00 0.00 0.00 46 1009.1
20260507123658 23 132 6.4 24.1 0.00 0.00 0.00 47 1009.1
20260507123202 23 149 24.1 49.9 0.00 0.00 0.00 48 1008.8
20260507122705 23 152 6.4 32.2 0.00 0.00 0.00 45 1009.1
20260507122158 23 144 4.8 27.4 0.00 0.00 0.00 46 1009.1
20260507121659 23 348 9.7 24.1 0.00 0.00 0.00 45 1009.0
20260507121201 23 180 6.4 22.5 0.00 0.00 0.00 45 1009.3
20260507120658 23 98 9.7 24.1 0.00 0.00 0.00 45 1009.3
20260507120202 23 38 8.0 38.6 0.00 0.00 0.00 45 1009.1
20260507115658 23 109 25.7 27.4 0.00 0.00 0.00 44 1009.1
20260507115201 23 147 8.0 20.9 0.00 0.00 0.00 41 1009.3
20260507114658 24 139 1.6 22.5 0.00 0.00 0.00 40 1009.5
20260507114201 24 188 8.0 16.1 0.00 0.00 0.00 39 1009.5
20260507113658 23 213 1.6 20.9 0.00 0.00 0.00 39 1009.4
20260507113205 23 97 11.3 33.8 0.00 0.00 0.00 37 1009.6
20260507112658 24 128 16.1 22.5 0.00 0.00 0.00 36 1009.8
20260507112158 24 91 12.9 27.4 0.00 0.00 0.00 35 1009.7
20260507111701 25 110 8.0 16.1 0.00 0.00 0.00 34 1009.7
20260507111201 25 5 3.2 14.5 0.00 0.00 0.00 33 1009.9
20260507110659 25 61 4.8 27.4 0.00 0.00 0.00 32 1009.9
20260507110158 25 92 14.5 25.7 0.00 0.00 0.00 32 1009.8
20260507105704 24 167 14.5 35.4 0.00 0.00 0.00 31 1010.0
20260507105158 24 21 9.7 29.0 0.00 0.00 0.00 31 1009.8
20260507104701 24 239 8.0 22.5 0.00 0.00 0.00 31 1009.8
20260507104158 24 70 11.3 14.5 0.00 0.00 0.00 31 1009.9
20260507103658 23 96 3.2 25.7 0.00 0.00 0.00 31 1010.1
20260507103158 23 51 20.9 43.5 0.00 0.00 0.00 31 1010.2
20260507102658 23 153 8.0 32.2 0.00 0.00 0.00 31 1010.2
20260507102158 23 78 3.2 29.0 0.00 0.00 0.00 30 1010.0
20260507101658 23 148 20.9 24.1 0.00 0.00 0.00 30 1010.2
20260507101204 23 107 3.2 22.5 0.00 0.00 0.00 30 1010.1
20260507100707 23 102 16.1 38.6 0.00 0.00 0.00 30 1010.1
20260507100204 23 76 12.9 33.8 0.00 0.00 0.00 30 1010.3
20260507095658 23 128 12.9 51.5 0.00 0.00 0.00 30 1010.6
20260507095158 23 68 16.1 35.4 0.00 0.00 0.00 30 1010.5
20260507094701 23 65 14.5 38.6 0.00 0.00 0.00 29 1010.5
20260507094158 23 96 25.7 35.4 0.00 0.00 0.00 29 1010.8
20260507093658 23 83 24.1 38.6 0.00 0.00 0.00 29 1010.5
20260507093158 23 73 22.5 35.4 0.00 0.00 0.00 31 1010.5
20260507092658 23 80 24.1 40.2 0.00 0.00 0.00 31 1010.4
20260507092158 23 84 20.9 30.6 0.00 0.00 0.00 32 1010.5
20260507091658 23 133 12.9 41.8 0.00 0.00 0.00 32 1010.7
20260507091201 23 72 6.4 24.1 0.00 0.00 0.00 34 1010.6
20260507090658 22 123 6.4 27.4 0.00 0.00 0.00 34 1010.5
20260507090158 22 125 14.5 43.5 0.00 0.00 0.00 33 1010.6
20260507085658 22 55 16.1 38.6 0.00 0.00 0.00 34 1010.6
20260507085205 22 99 32.2 35.4 0.00 0.00 0.00 34 1010.6
20260507084701 22 96 27.4 37.0 0.00 0.00 0.00 35 1010.8
20260507084158 22 124 14.5 45.1 0.00 0.00 0.00 35 1010.8
20260507083658 22 87 12.9 54.7 0.00 0.00 0.00 38 1010.7
20260507083201 22 85 33.8 53.1 0.00 0.00 0.00 38 1010.8
20260507082701 22 87 17.7 35.4 0.00 0.00 0.00 39 1011.0
20260507082201 22 63 11.3 40.2 0.00 0.00 0.00 38 1010.8
20260507081658 22 128 11.3 33.8 0.00 0.00 0.00 40 1010.8
20260507081201 22 54 16.1 35.4 0.00 0.00 0.00 41 1010.9
20260507080704 22 183 1.6 35.4 0.00 0.00 0.00 40 1010.9
20260507080158 22 213 11.3 37.0 0.00 0.00 0.00 41 1011.1
20260507075704 22 113 11.3 25.7 0.00 0.00 0.00 43 1011.2
20260507075201 22 65 3.2 20.9 0.00 0.00 0.00 43 1011.2
20260507074658 22 112 14.5 29.0 0.00 0.00 0.00 42 1011.3
20260507074201 22 176 3.2 14.5 0.00 0.00 0.00 44 1011.4
20260507073658 21 128 12.9 22.5 0.00 0.00 0.00 45 1011.5
20260507073202 21 13 4.8 16.1 0.00 0.00 0.00 45 1011.6
20260507072658 21 115 14.5 20.9 0.00 0.00 0.00 44 1011.6
20260507072158 21 103 4.8 20.9 0.00 0.00 0.00 43 1011.7
20260507071701 21 24 11.3 29.0 0.00 0.00 0.00 45 1011.8
20260507071202 21 324 6.4 29.0 0.00 0.00 0.00 45 1011.8
20260507070659 21 177 1.6 19.3 0.00 0.00 0.00 46 1011.8
20260507070158 20 170 9.7 25.7 0.00 0.00 0.00 50 1011.8
20260507065701 20 122 4.8 20.9 0.00 0.00 0.00 46 1011.8
20260507065202 20 52 3.2 19.3 0.00 0.00 0.00 48 1011.8
20260507064701 20 89 22.5 25.7 0.00 0.00 0.00 46 1011.8
20260507064201 20 63 6.4 20.9 0.00 0.00 0.00 48 1011.9
20260507063659 20 56 6.4 25.7 0.00 0.00 0.00 50 1011.8
20260507063201 20 82 16.1 16.1 0.00 0.00 0.00 49 1011.8
20260507062659 20 44 6.4 9.7 0.00 0.00 0.00 51 1011.9
20260507062159 20 107 0.0 12.9 0.00 0.00 0.00 51 1012.0
20260507061701 20 91 9.7 11.3 0.00 0.00 0.00 48 1012.0
20260507061158 20 109 3.2 8.0 0.00 0.00 0.00 48 1012.0
20260507060659 19 338 0.0 0.0 0.00 0.00 0.00 48 1011.9
20260507060202 19 338 0.0 0.0 0.00 0.00 0.00 48 1012.1
20260507055658 19 47 0.0 0.0 0.00 0.00 0.00 48 1012.2
20260507055159 19 47 0.0 0.0 0.00 0.00 0.00 48 1012.1
20260507054702 19 281 0.0 1.6 0.00 0.00 0.00 48 1012.0
20260507054202 19 270 0.0 6.4 0.00 0.00 0.00 46 1012.0
20260507053659 19 286 4.8 8.0 0.00 0.00 0.00 46 1012.1
20260507053158 18 179 0.0 0.0 0.00 0.00 0.00 45 1012.2
20260507052702 18 178 0.0 4.8 0.00 0.00 0.00 45 1012.0
20260507052159 19 186 3.2 6.4 0.00 0.00 0.00 45 1011.9
20260507051702 18 96 0.0 3.2 0.00 0.00 0.00 44 1011.9
20260507051208 18 113 0.0 3.2 0.00 0.00 0.00 46 1012.0
20260507050702 18 107 0.0 3.2 0.00 0.00 0.00 45 1012.0
20260507050202 18 106 1.6 3.2 0.00 0.00 0.00 45 1012.0
20260507045659 18 187 1.6 4.8 0.00 0.00 0.00 44 1011.9
20260507045202 18 96 1.6 6.4 0.00 0.00 0.00 44 1011.9
20260507044702 18 230 3.2 6.4 0.00 0.00 0.00 44 1011.9
20260507044202 18 221 4.8 4.8 0.00 0.00 0.00 44 1012.0
20260507043659 18 240 0.0 1.6 0.00 0.00 0.00 43 1011.9
20260507043159 18 204 0.0 6.4 0.00 0.00 0.00 44 1011.9
20260507042659 18 84 0.0 4.8 0.00 0.00 0.00 46 1011.8
20260507042202 18 142 0.0 3.2 0.00 0.00 0.00 49 1011.9
20260507041659 18 142 1.6 1.6 0.00 0.00 0.00 48 1012.0
20260507041159 18 142 0.0 1.6 0.00 0.00 0.00 48 1011.9
20260507040659 18 142 0.0 6.4 0.00 0.00 0.00 48 1011.8
20260507040159 18 131 4.8 6.4 0.00 0.00 0.00 47 1012.0
20260507035702 18 155 0.0 3.2 0.00 0.00 0.00 45 1012.0
20260507035202 18 246 1.6 4.8 0.00 0.00 0.00 44 1012.2
20260507034659 18 246 3.2 4.8 0.00 0.00 0.00 46 1012.1
20260507034159 18 246 3.2 6.4 0.00 0.00 0.00 46 1012.1
20260507033659 18 225 3.2 4.8 0.00 0.00 0.00 47 1012.1
20260507033159 18 242 1.6 6.4 0.00 0.00 0.00 48 1011.9
20260507032702 18 197 0.0 0.0 0.00 0.00 0.00 48 1011.8
20260507032202 18 197 0.0 3.2 0.00 0.00 0.00 48 1011.8
20260507031705 18 198 0.0 4.8 0.00 0.00 0.00 47 1011.9
20260507031159 18 248 0.0 4.8 0.00 0.00 0.00 46 1011.9
20260507030659 18 150 1.6 4.8 0.00 0.00 0.00 46 1012.1
20260507030205 18 184 0.0 3.2 0.00 0.00 0.00 47 1012.0
20260507025659 18 184 1.6 6.4 0.00 0.00 0.00 48 1012.1
20260507025202 18 110 0.0 6.4 0.00 0.00 0.00 47 1012.0
20260507024705 18 134 1.6 6.4 0.00 0.00 0.00 48 1012.0
20260507024205 19 117 4.8 8.0 0.00 0.00 0.00 47 1012.2
20260507023659 19 171 0.0 9.7 0.00 0.00 0.00 46 1012.1
20260507023205 20 128 0.0 4.8 0.00 0.00 0.00 44 1012.3
20260507022659 20 142 0.0 4.8 0.00 0.00 0.00 43 1012.1
20260507022202 20 218 0.0 0.0 0.00 0.00 0.00 42 1012.1
20260507021659 20 217 0.0 0.0 0.00 0.00 0.00 41 1012.0
20260507021202 20 218 0.0 9.7 0.00 0.00 0.00 41 1012.0
20260507020702 20 200 0.0 8.0 0.00 0.00 0.00 41 1012.0
20260507020156 20 221 3.2 11.3 0.00 0.00 0.00 41 1012.1
20260507015656 20 273 0.0 4.8 0.00 0.00 0.00 42 1012.1
20260507015156 20 273 0.0 1.6 0.00 0.00 0.00 42 1012.0
20260507014659 20 273 0.0 6.4 0.00 0.00 0.00 43 1012.2
20260507014156 20 355 0.0 3.2 0.00 0.00 0.00 43 1012.0
20260507013656 20 44 1.6 4.8 0.00 0.00 0.00 42 1012.0
20260507013156 20 5 0.0 3.2 0.00 0.00 0.00 43 1012.0
20260507012659 20 5 0.0 6.4 0.00 0.00 0.00 43 1011.7
20260507012202 20 355 6.4 9.7 0.00 0.00 0.00 43 1011.4
20260507011656 20 36 0.0 0.0 0.00 0.00 0.00 43 1011.8
20260507011156 20 320 0.0 3.2 0.00 0.00 0.00 43 1012.1
20260507010702 20 254 1.6 4.8 0.00 0.00 0.00 43 1012.1
20260507010159 20 270 0.0 6.4 0.00 0.00 0.00 43 1012.1
20260507005702 20 221 3.2 8.0 0.00 0.00 0.00 43 1012.0
20260507005159 20 234 0.0 4.8 0.00 0.00 0.00 44 1011.8